Hourly Data Report for September 11, 2017

All times are specified in Local Standard Time (LST). Add 1 hour to adjust for Daylight Saving Time where and when it is observed.

COMOX A
BRITISH COLUMBIA

49°43'00.000" N
124°54'00.000" W
25.60 m
1021830
71893
YQQ

Download Data

Hourly Data (September 2017)
Hourly Data Report for September 11, 2017
Temp Definition
°C
Dew Point Temp Definition
°C
Rel Hum Definition
%
Wind Dir Definition
10's deg

Wind Spd Definition
km/h
Visibility Definition
km
Stn Press Definition
kPa
Hmdx Definition


Wind Chill Definition


Weather Definition


TIME
00:00 15.4 12.3 82 18 7 32.2 101.99     Mostly Cloudy
01:00 14.7 12.1 84 15 11 32.2 101.94     Mostly Cloudy
02:00 15.4 11.5 78 11 13 32.2 101.89     Mainly Clear
03:00 13.8 11.3 85   0 32.2 101.85     Mainly Clear
04:00 14.7 11.7 82 14 11 32.2 101.82     Mainly Clear
05:00 13.7 11.0 84 20 7 32.2 101.74     Mainly Clear
06:00 14.5 11.9 84 17 19 32.2 101.71     Mainly Clear
07:00 15.4 12.1 81 16 22 32.2 101.69     Mainly Clear
08:00 16.9 11.6 71 15 32 32.2 101.64     Mainly Clear
09:00 18.6 10.9 61 16 33 32.2 101.61     Mostly Cloudy
10:00 17.2 10.6 65 15 39 32.2 101.60     Mostly Cloudy
11:00 18.7 11.4 62 16 24 32.2 101.60     Mostly Cloudy
12:00 19.8 11.2 58 14 22 32.2 101.57     Mostly Cloudy
13:00 20.8 11.6 56 15 24 32.2 101.55     Mostly Cloudy
14:00 19.3 11.2 59 13 20 32.2 101.52     Mostly Cloudy
15:00 21.6 11.5 53 18 11 32.2 101.45     Mostly Cloudy
16:00 21.1 11.7 55 34 17 32.2 101.47     Mostly Cloudy
17:00 18.5 11.6 64 35 19 32.2 101.47     Mostly Cloudy
18:00 17.5 13.5 77 34 20 32.2 101.47     Mostly Cloudy
19:00 17.2 13.7 80 33 13 32.2 101.46     Mostly Cloudy
20:00 15.6 13.0 85 34 15 32.2 101.46     Mostly Cloudy
21:00 16.4 13.5 83 34 15 32.2 101.45     Mostly Cloudy
22:00 16.6 13.4 81 34 11 32.2 101.46     Mostly Cloudy
23:00 17.0 13.6 80 32 17 32.2 101.43     Cloudy

Notes on Data Quality.

Legend

  • E = Estimated
  • M = Missing
  • NA = Not Available
  • ‡ = Partner data that is not subject to review by the National Climate Archives
Date modified: